USA 40 R/B DEB, 23370

Orbit data source: Space-Track

USA 40 R/B DEB, 23370 is space debris in LEO originally from a launch on Tue, 08 Aug 1989 UTC launched from the Air Force Eastern Test Range (AFETR). Debris objects in space refer to the collection of defunct objects orbiting the Earth. Examples of debris include non-operational satellites, rocket bodies, and fragments generated from explosions, collisions, or faulty payload assembly.

Loading next visibility...
Identifier
23370, 1989-061AS
Orbit
LEO
Country
Flag of USUS
Related business
Manufacturer
Unknown
Mission
Spacecraft
Bus & Motor
Unknown
Mass
Unknown
Launch date (UTC)
1989-08-08 (37 years ago)
Launch vehicle
Unknown
Launch site
Air Force Eastern Test Range (AFETR)
Object type
Payload
Rocket body
Debris
Shape & HBR
Unknown shape, 0.1 m
Radar Cross Section
Medium (>0.1 m² and <1 m²)

Expand to show TLE details & history
Last TLE update: 3 days ago

TLE from 3 days ago
0 USA 40 R/B DEB
1 23370U 89061AS  26170.84837481  .00020373  00000-0  60658-2 0  9990
2 23370  57.0260  33.3321 2055009  36.0673 336.2710 10.88777388264076
Epoch: 2026-06-19T20:21Z
TLE epoch observation values (Epoch: 2026-06-19T20:21:39.583Z)
Latitude
-0.0001°
Longitude
179.84564°
Altitude
684.147 km
Speed
8.159 km/s
True Right ascension
02h 13m 19s
True Declination
0° 00' 00"
Sunlit
Object was in daylight at epoch
Visualization orbit readout
Latitude
Unknown
Longitude
Unknown
Altitude
Unknown
Speed
Unknown
Apparent Right ascension
Unknown
Apparent Declination
Unknown
Sunlit
N/A
Visualization observer readout
Local Sidereal Time
00:51:15
Azimuth
Unknown
Elevation
Unknown
Doppler factor
Unknown
Orbital elements
Apogee altitude
3,987.474 km
Perigee altitude
453.437 km
Semi-major axis
8,598.592 km
Eccentricity
0.2055
Inclination
57.026°
RAAN
33.3321°
Arg. of periapsis
36.0673°
True anomaly
324.02475°
Mean anomaly
336.271°
Eccentric anomaly
330.46717°
Mean motion
2.72209 °/min
Orbital period
132.25 mins
BSTAR
0.0060658
Loading maneuver chart data...
Computing Atmospheric mass density...
Loading historical data...
Loading historical data...
Loading historical data...
Loading historical data...
Loading historical data...
Loading historical data...
Loading historical data...

Documentation

Showing up to 5 results
|